AirNav   Everest Fuels
 
 1183 users online  

60C Elroy Airport
Elroy, Wisconsin, USA

GOING TO ELROY?


FAA INFORMATION EFFECTIVE 16 JUNE 2022

Location

FAA Identifier: 60C
Lat/Long: 43-42-22.9010N 090-15-27.4620W
43-42.381683N 090-15.457700W
43.7063614,-90.2576283
(estimated)
Elevation: 944 ft. / 287.7 m (surveyed)
Variation: 01E (1985)
From city: 2 miles S of ELROY, WI
Time zone: UTC -5 (UTC -6 during Standard Time)
Zip code: 53929

Airport Operations

Airport use: Open to the public
Activation date: 05/1965
Control tower: no
ARTCC: CHICAGO CENTER
FSS: GREEN BAY FLIGHT SERVICE STATION
NOTAMs facility: GRB (NOTAM-D service available)
Attendance: UNATNDD
Wind indicator: no
Segmented circle: yes

Airport Communications

CTAF: 122.9
WX AWOS-3 at 82C (9 nm NE): 123.925 (608-562-6153)
WX AWOS-3PT at C35 (16 nm SE): 118.95 (608-768-0023)

Nearby radio navigation aids

VOR radial/distance  VOR name  Freq  Var
DLLr291/23.4DELLS VORTAC117.0003E

 
NDB name  Hdg/Dist  Freq  Var  ID
MCCOY130/21.741200ECMY -.-. -- -.--

Airport Services

Parking: tiedowns
Airframe service: NONE
Powerplant service: NONE
Bottled oxygen: NONE
Bulk oxygen: NONE

Runway Information

Runway 6/24

Dimensions: 3085 x 100 ft. / 940 x 30 m
Surface: turf/gravel, in poor condition
2550 FT BY 34 FT GRVL SUPERIMPOSED ON TURF RY; SFC PATCHY & ROUGH.
RUNWAY 6  RUNWAY 24
Latitude: 43-42.249000N43-42.514333N
Longitude: 090-15.756167W090-15.159167W
Elevation: 944.0 ft.944.0 ft.
Traffic pattern: leftright
Markings: nonenone
Obstructions: 55 ft. trees, 780 ft. from runway, 50 ft. left of centerline, 14:1 slope to clear50 ft. trees, 30 ft. from runway, 50 ft. left and right of centerline

Airport Ownership and Management from official FAA records

Ownership: Privately-owned
Owner: ELROY AIRPORT INC.
N1862 HWY 80
ELROY, WI 53929
Phone (608) 547-4645
Manager: MIKE ERICKSON
BOX 74
ELROY, WI 53929
Phone (608) 547-4645
EMAIL ADDRESS: MGEVENTURES127@GMAIL.COM (ALL LOWER CASE)

Airport Operational Statistics

Aircraft based on the field: 1
Single engine airplanes: 1
    
Aircraft operations: avg 83/month *
50% transient general aviation
50% local general aviation
* for 12-month period ending 09 April 2021

Additional Remarks

TALL BLUFFS & TREES LCTD ON BOTH SIDES OF RY.
FOR CD CTC CHICAGO ARTCC AT 630-906-8921.

Instrument Procedures

There are no published instrument procedures at 60C.

Some nearby airports with instrument procedures:

82C - Mauston/New Lisbon Union Airport (9 nm NE)
KVOK - Volk Field Airport (14 nm N)
C35 - Reedsburg Municipal Airport (16 nm SE)
Y72 - Bloyer Field Airport (19 nm NW)
KDAF - Necedah Airport (21 nm N)
 
Loc | Ops | Rwys | IFR | FBO | Links
Com | Nav | Svcs | Stats | Notes
Area around 60C (Elroy Airport)
 
Road maps at: MapQuest Bing Google
 
Aerial photo
No photo
 
Sectional chart

 
Airport distance calculator
Flying to Elroy Airport? Find the distance to fly.

From to 60C

Sunrise and sunset
Times for 05-Jul-2022
 Local
(UTC-5)
 Zulu
(UTC)
Morning civil twilight04:5109:51
Sunrise05:2610:26
Sunset20:4501:45
Evening civil twilight21:2002:20

Current date and time
Zulu (UTC)  06-Jul-2022 01:17:27
Local (UTC-5)  05-Jul-2022 20:17:27
 
METAR
K82C 
9nm NE 
060055Z AUTO 00000KT 10SM 27/24 A2984 RMK AO2 T02700241
KVOK 
13nm N 
060056Z 00000KT 10SM FEW040 SCT055 BKN200 25/23 A2983 RMK AO2A SLP100
KC35 
16nm SE 
060055Z AUTO 00000KT 10SM SCT039 BKN050 28/23 A2985 RMK AO2 T02760225 PWINO
TAF
KVOK 
13nm N 
051700Z 0517/0623 VRB06KT 9999 BKN011 QNH2987INS BECMG 0517/0518 VRB06KT 9999 SCT025 SCT040 QNH2988INS BECMG 0601/0602 VRB06KT 8000 -SHRA BKN020 QNH2992INS TEMPO 0605/0609 27020G25KT 6000 -TSRA BKN020CB BECMG 0611/0612 10009KT 8000 -SHRA OVC015 QNH3000INS TEMPO 0617/0618 27020G25KT 6000 -TSRA OVC010CB BECMG 0619/0620 12010G15KT 9000 BR OVC017 QNH2993INS TX29/0521Z TN20/0612Z LAST NO AMDS AFT 0522 NEXT 0609
NOTAMs
Click for the latest NOTAMs
NOTAMs are issued by the DoD/FAA and will open in a separate window not controlled by AirNav.

 

 
 

Would you like to see your business listed on this page?

 If your business provides an interesting product or service to pilots, flight crews, aircraft, or users of the Elroy Airport, you should consider listing it here.  To start the listing process, click on the button below
 
Add a business
 

Other Pages about Elroy Airport

Page from the Wisconsin airport directory (PDF)
 
Update a link
 
Copyright © AirNav, LLC. All rights reserved. Privacy Policy  Contact